Regional Weather Roundup
Issued by NWS

Home | Current Version | Previous Version | Graphics & Text | Print | Product List | Glossary On
Versions: 1 2 3 4 5 6 7 8 9 10 11 12 13 14 15 16 17 18 19 20 21 22 23 24 25 26 27 28 29 30 31 32 33 34 35 36 37 38 39 40 41 42 43 44 45 46 47 48 49 50
000
ASUS45 KBOI 190410
RWRID
WEATHER ROUNDUP FOR IDAHO
NATIONAL WEATHER SERVICE BOISE ID
1000 PM MDT THU SEP 18 2014

NOTE: "FAIR" INDICATES FEW OR NO CLOUDS BELOW 12000 FEET
WITH NO SIGNIFICANT WEATHER AND/OR OBSTRUCTIONS TO VISIBILITY

IDZ012-014-190500-
SOUTHWEST IDAHO


CITY           SKY/WX    TMP DP  RH WIND       PRES   REMARKS
BOISE          CLEAR     73  43  33 CALM      29.82R
CALDWELL       CLEAR     66  46  48 W10       29.84R
MOUNTAIN HOME  PTCLDY    73  42  31 N9        29.83R
$$

IDZ016-017-190500-
SOUTHCENTRAL IDAHO


CITY           SKY/WX    TMP DP  RH WIND       PRES   REMARKS
BURLEY         MOCLDY    61  49  64 SW6       29.88R HAZE
JEROME         CLEAR     65  41  41 CALM      29.89R
TWIN FALLS     CLEAR     63  43  48 S9        29.89R HAZE
$$

IDZ019>023-190500-
SOUTHEAST IDAHO


CITY           SKY/WX    TMP DP  RH WIND       PRES   REMARKS
IDAHO FALLS    CLOUDY    66  49  54 S8        29.92R
POCATELLO      MOCLDY    63  56  78 SW5       29.91S
REXBURG        CLOUDY    64  49  57 S9        29.91R
$$

IDZ006-010-011-018-031-032-190500-
CENTRAL IDAHO MOUNTAINS


CITY           SKY/WX    TMP DP  RH WIND       PRES   REMARKS
MCCALL         PTCLDY    58  36  43 NE3       29.93R
HAILEY         PTCLDY    61  39  44 NW6       29.96R
STANLEY          N/A     48  35  60 SE5       30.03S
SALMON         PTCLDY    55  48  76 N6        29.85R
CHALLIS        CLEAR     60  39  45 NE6       29.92R
$$

IDZ002-004-006-007-026-190500-
NORTHERN IDAHO


CITY           SKY/WX    TMP DP  RH WIND       PRES   REMARKS
LEWISTON       CLOUDY    74  50  42 NW15      29.82R
LOWELL           N/A     62  53  72 CALM      29.84R
COEUR D`ALENE  CLOUDY    70  48  46 W14G21    29.80S
MULLAN PASS    CLOUDY    52  42  69 W8        29.96R
$$



USA.gov is the U.S. government's official web portal to all federal, state and local government web resources and services.